• In Moldova, Republic
  • List of Countries
  • For 7 days
  • Water Temperature
  • Satellite Maps
  • Weather Map
  • Weather Widgets
  • user-avatar
    Login

    Hourly Weather Malanje

    Today, 24 April, Monday

    Time Temperature Precipitation Wind Pressure Humidity
    00:00 +19°C° 0.2 mm 1 mps 665 mmHg 95%
    01:00 +19°C° 0 mm 1 mps 666 mmHg 96%
    02:00 +19°C° 0 mm 1 mps 665 mmHg 96%
    03:00 +19°C° 0 mm 1 mps 665 mmHg 96%
    04:00 +19°C° 0 mm 1 mps 665 mmHg 96%
    05:00 +19°C° 0 mm 1 mps 665 mmHg 95%
    06:00 +20°C° 0 mm 1 mps 666 mmHg 94%
    07:00 +20°C° 0 mm 1 mps 666 mmHg 93%
    08:00 +22°C° 0 mm 1 mps 667 mmHg 84%
    09:00 +24°C° 0 mm 2 mps 667 mmHg 76%
    10:00 +26°C° 0 mm 2 mps 668 mmHg 67%
    11:00 +27°C° 0 mm 2 mps 667 mmHg 61%
    12:00 +28°C° 0 mm 3 mps 667 mmHg 56%
    13:00 +28°C° 0 mm 3 mps 667 mmHg 50%
    14:00 +28°C° 0 mm 3 mps 666 mmHg 53%
    15:00 +27°C° 0 mm 3 mps 666 mmHg 55%
    16:00 +27°C° 0 mm 3 mps 665 mmHg 58%
    17:00 +25°C° 0 mm 3 mps 665 mmHg 62%
    18:00 +21°C° 0 mm 3 mps 665 mmHg 66%
    19:00 +19°C° 0 mm 3 mps 664 mmHg 70%
    20:00 +18°C° 0 mm 2 mps 665 mmHg 70%
    21:00 +17°C° 0 mm 2 mps 665 mmHg 71%
    22:00 +16°C° 0 mm 2 mps 665 mmHg 72%
    23:00 +16°C° 0 mm 2 mps 665 mmHg 72%

    Tomorrow, 25 April, Tuesday

    Time Temperature Precipitation Wind Pressure Humidity
    00:00 +15°C° 0 mm 2 mps 665 mmHg 71%
    01:00 +15°C° 0 mm 2 mps 665 mmHg 71%
    02:00 +15°C° 0 mm 2 mps 665 mmHg 72%
    03:00 +14°C° 0 mm 2 mps 664 mmHg 72%
    04:00 +14°C° 0 mm 2 mps 664 mmHg 73%
    05:00 +15°C° 0 mm 2 mps 664 mmHg 72%
    06:00 +15°C° 0 mm 2 mps 665 mmHg 71%
    07:00 +16°C° 0 mm 2 mps 665 mmHg 69%
    08:00 +19°C° 0 mm 2 mps 666 mmHg 62%
    09:00 +23°C° 0 mm 2 mps 667 mmHg 55%
    10:00 +25°C° 0 mm 2 mps 668 mmHg 48%
    11:00 +27°C° 0 mm 2 mps 667 mmHg 46%
    12:00 +28°C° 0 mm 2 mps 667 mmHg 44%
    13:00 +29°C° 0 mm 2 mps 666 mmHg 43%
    14:00 +29°C° 0 mm 1 mps 666 mmHg 44%
    15:00 +29°C° 0 mm 1 mps 665 mmHg 45%
    16:00 +29°C° 0 mm 1 mps 664 mmHg 47%
    17:00 +26°C° 0 mm 1 mps 664 mmHg 52%
    18:00 +23°C° 0 mm 1 mps 664 mmHg 58%
    19:00 +20°C° 0 mm 1 mps 664 mmHg 64%
    20:00 +20°C° 0 mm 1 mps 664 mmHg 62%
    21:00 +18°C° 0 mm 2 mps 665 mmHg 61%
    22:00 +18°C° 0 mm 2 mps 665 mmHg 59%
    23:00 +18°C° 0 mm 1 mps 665 mmHg 59%

    Day after tomorrow, 26 April, Wednesday

    Time Temperature Precipitation Wind Pressure Humidity
    00:00 +16°C° 0 mm 1 mps 664 mmHg 59%
    01:00 +16°C° 0 mm 1 mps 664 mmHg 60%
    02:00 +16°C° 0 mm 1 mps 664 mmHg 58%
    03:00 +16°C° 0 mm 1 mps 664 mmHg 57%
    04:00 +16°C° 0 mm 1 mps 664 mmHg 55%
    05:00 +18°C° 0 mm 1 mps 664 mmHg 57%
    06:00 +19°C° 0 mm 1 mps 665 mmHg 59%
    07:00 +20°C° 0 mm 1 mps 666 mmHg 60%
    08:00 +22°C° 0 mm 1 mps 666 mmHg 58%
    09:00 +24°C° 0 mm 2 mps 667 mmHg 55%
    10:00 +26°C° 0 mm 2 mps 668 mmHg 52%
    11:00 +27°C° 0 mm 2 mps 667 mmHg 53%
    12:00 +28°C° 0 mm 2 mps 667 mmHg 55%
    13:00 +29°C° 0 mm 3 mps 666 mmHg 56%
    14:00 +28°C° 0 mm 2 mps 666 mmHg 57%
    15:00 +28°C° 0 mm 2 mps 665 mmHg 59%
    16:00 +28°C° 0 mm 2 mps 665 mmHg 60%
    17:00 +26°C° 0 mm 1 mps 665 mmHg 69%
    18:00 +23°C° 0 mm 1 mps 664 mmHg 78%
    19:00 +20°C° 0 mm 1 mps 664 mmHg 87%
    20:00 +20°C° 0 mm 1 mps 664 mmHg 87%
    21:00 +18°C° 0 mm 0 mps 665 mmHg 88%
    22:00 +17°C° 0 mm 0 mps 665 mmHg 89%
    23:00 +17°C° 0 mm 0 mps 665 mmHg 89%

    27 April, Thursday

    Time Temperature Precipitation Wind Pressure Humidity
    00:00 +17°C° 0 mm 0 mps 664 mmHg 90%
    01:00 +17°C° 0 mm 0 mps 664 mmHg 90%
    02:00 +16°C° 0 mm 0 mps 664 mmHg 91%
    03:00 +16°C° 0 mm 0 mps 664 mmHg 91%
    04:00 +16°C° 0 mm 0 mps 664 mmHg 92%
    05:00 +17°C° 0 mm 0 mps 665 mmHg 89%
    06:00 +18°C° 0 mm 0 mps 666 mmHg 87%
    07:00 +22°C° 0 mm 1 mps 667 mmHg 84%
    08:00 +23°C° 0.1 mm 1 mps 667 mmHg 79%
    09:00 +25°C° 0.1 mm 2 mps 668 mmHg 73%
    10:00 +26°C° 0.1 mm 3 mps 668 mmHg 67%
    11:00 +27°C° 0.1 mm 3 mps 668 mmHg 63%
    12:00 +28°C° 0.1 mm 3 mps 667 mmHg 59%
    13:00 +29°C° 0.1 mm 3 mps 666 mmHg 54%
    14:00 +29°C° 0 mm 3 mps 666 mmHg 55%
    15:00 +29°C° 0 mm 3 mps 665 mmHg 56%
    16:00 +29°C° 0 mm 2 mps 665 mmHg 57%
    17:00 +26°C° 0 mm 2 mps 665 mmHg 65%
    18:00 +24°C° 0 mm 2 mps 665 mmHg 73%
    19:00 +20°C° 0 mm 2 mps 665 mmHg 80%
    20:00 +20°C° 0 mm 2 mps 665 mmHg 82%
    21:00 +20°C° 0 mm 2 mps 665 mmHg 83%
    22:00 +20°C° 0 mm 2 mps 666 mmHg 84%
    23:00 +19°C° 0.2 mm 2 mps 665 mmHg 87%

    28 April, Friday

    Time Temperature Precipitation Wind Pressure Humidity
    00:00 +19°C° 0.2 mm 2 mps 665 mmHg 90%
    01:00 +19°C° 0.2 mm 1 mps 665 mmHg 93%
    02:00 +19°C° 0.1 mm 1 mps 665 mmHg 93%
    03:00 +19°C° 0.1 mm 1 mps 665 mmHg 93%
    04:00 +19°C° 0.1 mm 1 mps 665 mmHg 93%
    05:00 +18°C° 0 mm 2 mps 665 mmHg 92%
    06:00 +19°C° 0 mm 2 mps 666 mmHg 91%
    07:00 +19°C° 0 mm 2 mps 667 mmHg 90%
    08:00 +21°C° 0.1 mm 3 mps 667 mmHg 82%
    09:00 +24°C° 0.1 mm 3 mps 668 mmHg 74%
    10:00 +27°C° 0.1 mm 4 mps 668 mmHg 67%
    11:00 +27°C° 0.2 mm 4 mps 668 mmHg 64%
    12:00 +28°C° 0.2 mm 4 mps 667 mmHg 62%
    13:00 +29°C° 0.2 mm 4 mps 666 mmHg 59%
    14:00 +28°C° 0.2 mm 4 mps 666 mmHg 61%
    15:00 +28°C° 0.2 mm 3 mps 665 mmHg 63%
    16:00 +28°C° 0.2 mm 3 mps 665 mmHg 66%
    17:00 +26°C° 0.1 mm 2 mps 665 mmHg 72%
    18:00 +24°C° 0.1 mm 2 mps 665 mmHg 78%
    19:00 +21°C° 0.1 mm 2 mps 665 mmHg 84%
    20:00 +21°C° 1.2 mm 2 mps 666 mmHg 86%
    21:00 +21°C° 1.2 mm 1 mps 666 mmHg 88%
    22:00 +21°C° 1.2 mm 1 mps 666 mmHg 90%
    23:00 +20°C° 1.4 mm 1 mps 666 mmHg 92%

    29 April, Saturday

    Time Temperature Precipitation Wind Pressure Humidity
    00:00 +20°C° 1.4 mm 1 mps 666 mmHg 93%
    01:00 +20°C° 1.4 mm 1 mps 666 mmHg 94%
    02:00 +20°C° 0 mm 1 mps 665 mmHg 94%
    03:00 +18°C° 0 mm 2 mps 665 mmHg 94%
    04:00 +18°C° 0 mm 2 mps 665 mmHg 94%
    05:00 +19°C° 0 mm 2 mps 666 mmHg 94%
    06:00 +19°C° 0 mm 2 mps 667 mmHg 93%
    07:00 +19°C° 0 mm 3 mps 667 mmHg 93%
    08:00 +21°C° 0 mm 3 mps 668 mmHg 86%
    09:00 +23°C° 0 mm 4 mps 668 mmHg 78%
    10:00 +26°C° 0 mm 5 mps 669 mmHg 71%
    11:00 +27°C° 0.1 mm 5 mps 668 mmHg 67%
    12:00 +28°C° 0.1 mm 4 mps 667 mmHg 64%
    13:00 +29°C° 0.1 mm 4 mps 667 mmHg 60%
    14:00 +29°C° 0.1 mm 4 mps 666 mmHg 62%
    15:00 +28°C° 0.1 mm 3 mps 666 mmHg 63%
    16:00 +28°C° 0.1 mm 3 mps 665 mmHg 65%
    17:00 +26°C° 0 mm 2 mps 665 mmHg 71%
    18:00 +24°C° 0 mm 2 mps 665 mmHg 76%
    19:00 +23°C° 0 mm 2 mps 665 mmHg 82%
    20:00 +21°C° 0 mm 2 mps 666 mmHg 84%
    21:00 +21°C° 0 mm 2 mps 666 mmHg 86%
    22:00 +20°C° 0 mm 2 mps 666 mmHg 88%
    23:00 +20°C° 0.2 mm 2 mps 666 mmHg 88%
    Show more